Wind_Speed
29 28 27 26 26 26 27 27 28 27 27 26 25 25 24 23 23 22 22 21 21 22 22 22 22 22 22 21 21 21 21 20 20 20 20 20 21 21 21 21 21 21 21 20
31 30 28 28 27 27 27 27 28 29 29 27 27 26 25 24 24 23 23 22 22 22 22 22 22 22 22 22 22 21 21 21 21 21 21 21 21 22 22 22 22 21 21 21
33 32 32 31 28 28 28 27 28 28 28 28 28 27 27 26 25 24 23 22 22 22 22 22 22 22 22 22 22 22 22 22 22 22 22 22 23 23 23 23 23 22 22 21
34 34 35 31 29 29 29 29 29 29 29 29 29 29 28 27 26 25 24 24 24 23 22 23 23 23 23 24 23 24 24 23 23 23 23 23 23 24 24 24 23 23 23 23
35 35 35 32 31 31 30 30 29 30 30 30 29 28 28 28 27 26 25 24 24 25 25 25 25 25 25 24 24 25 25 24 25 25 25 25 25 25 25 25 25 25 24 25
34 35 35 32 31 31 31 31 30 30 30 29 29 29 28 28 28 27 27 26 26 26 27 27 27 27 26 26 26 26 25 25 25 25 26 26 26 26 26 26 25 25 25 25
34 34 34 32 32 31 32 31 31 31 30 30 29 29 29 28 29 29 28 28 28 27 28 28 28 28 27 27 27 27 27 27 27 26 26 27 27 26 26 26 26 26 26 25
34 34 33 32 33 33 32 32 32 31 31 30 29 29 29 29 29 29 29 29 29 29 29 29 28 28 28 27 27 28 28 27 27 27 27 28 27 27 27 27 27 26 26 25
34 34 33 32 33 33 33 33 33 32 31 31 30 30 30 30 30 30 30 31 31 31 30 29 29 29 28 27 28 28 28 28 28 28 28 28 28 28 28 28 27 26 26 25
32 32 32 32 33 32 33 32 32 32 31 31 31 31 30 30 30 30 30 31 31 30 30 30 29 30 29 29 28 28 28 28 28 29 29 28 28 29 29 28 27 27 26 25
32 33 32 32 33 32 32 32 33 33 32 31 31 31 30 30 30 30 30 31 31 31 30 30 30 30 29 29 29 29 29 29 28 29 29 29 28 29 28 28 27 26 26 26
33 33 33 32 32 32 32 31 32 32 32 31 31 31 31 31 31 30 30 31 31 31 31 31 30 30 30 30 30 30 30 29 29 29 29 29 28 29 29 28 27 26 26 25
32 32 32 31 31 31 31 30 31 31 31 31 30 29 29 30 30 30 30 30 30 30 30 30 30 30 30 30 30 30 29 29 29 29 29 28 29 29 27 27 26 25 25 26
32 32 31 30 30 30 30 30 30 30 29 29 28 28 29 29 30 30 30 30 30 30 30 29 29 29 30 30 30 29 29 29 28 28 29 29 28 27 27 26 25 25 26 26
31 30 30 30 30 30 29 29 29 30 29 28 28 28 28 29 29 29 29 29 29 29 29 29 30 29 30 30 30 30 29 29 28 28 28 27 26 26 26 25 25 24 25 25
30 30 29 29 29 29 29 29 29 29 28 27 27 27 27 27 27 27 28 28 28 28 29 28 28 28 28 28 28 28 28 29 28 28 27 26 25 25 24 24 24 24 24 24
28 28 27 27 28 28 27 27 27 27 27 26 25 24 25 25 25 25 26 26 26 26 27 27 26 25 26 26 26 27 28 27 27 28 27 26 25 25 25 25 25 24 24 24
26 26 26 26 26 25 25 24 24 24 24 24 24 24 24 24 23 23 23 23 24 25 25 25 24 24 25 25 25 25 26 26 26 25 24 24 24 25 25 25 24 23 23 23
26 25 25 25 24 25 24 24 24 24 23 24 24 23 23 23 23 23 22 22 22 23 23 22 22 23 24 24 24 24 24 24 23 23 23 23 23 23 22 22 22 23 22 21
25 25 25 24 24 24 24 23 23 23 23 23 23 23 23 23 23 22 22 22 22 22 21 21 21 21 22 21 21 21 22 22 22 22 22 22 21 21 21 21 20 20 19 19
24 25 25 24 24 24 23 22 23 23 22 22 22 22 22 22 21 21 21 21 21 21 20 19 19 19 19 19 19 20 20 20 19 19 20 21 21 20 19 18 17 17 18 18
23 24 25 24 23 23 22 22 22 22 21 21 21 21 21 20 20 20 20 20 19 19 19 19 18 18 18 18 18 18 18 18 18 18 19 20 20 19 18 17 17 17 18 18
20 20 22 22 21 21 21 21 21 21 21 21 21 21 21 20 20 19 18 18 18 18 18 17 17 17 17 17 17 17 17 17 17 18 18 18 18 17 17 17 17 17 18 18
17 18 19 19 18 19 20 20 21 21 20 20 21 21 20 19 19 19 18 17 17 17 17 17 17 16 16 16 16 16 16 16 17 17 17 17 17 18 18 18 18 18 17 17
15 15 16 16 16 17 17 17 17 18 18 18 18 17 18 18 18 17 16 16 16 16 16 17 17 16 16 16 16 16 16 16 17 17 18 18 18 18 18 18 18 18 18 18
14 14 15 15 15 15 14 15 15 15 15 15 14 14 15 16 16 15 15 16 16 16 17 17 17 17 17 17 17 18 18 18 18 18 18 18 19 19 18 18 17 17 18 18
14 14 15 15 15 14 14 14 14 14 14 14 15 15 15 15 15 15 16 16 17 17 16 16 17 17 18 18 18 18 18 18 19 19 19 19 18 18 18 18 18 18 18 18
Wind_Direction
262 263 263 263 264 266 269 272 274 276 279 281 283 285 287 287 288 289 290 291 293 296 297 295 292 291 288 287 285 285 286 289 289 290 290 291 294 295 296 298 300 298 293 291
261 263 263 264 264 265 268 271 273 274 276 279 281 284 287 288 288 291 293 295 296 296 296 296 295 290 288 288 286 286 288 288 289 290 291 291 291 293 295 295 297 299 296 294
261 262 264 265 265 266 269 270 273 274 276 278 280 283 286 287 287 290 292 295 296 294 293 295 295 294 293 292 288 288 289 289 288 289 289 290 290 291 292 293 294 295 296 295
262 263 263 266 266 266 268 270 272 274 274 276 278 280 283 284 285 288 291 293 294 292 290 293 293 292 291 291 291 290 291 291 291 290 289 289 291 290 288 288 290 291 293 293
260 262 265 265 265 267 268 270 272 274 275 275 277 278 279 282 283 285 287 290 291 291 290 291 291 289 289 289 290 290 289 290 290 290 289 289 291 291 291 289 287 288 289 291
260 263 265 266 266 268 269 270 271 272 273 274 275 275 276 278 280 281 283 286 288 288 289 287 287 287 286 288 288 289 287 288 289 290 290 290 290 291 291 292 289 289 290 292
260 263 266 267 266 267 269 272 272 271 272 273 274 276 276 276 278 279 281 283 285 286 287 288 286 285 284 286 286 287 287 286 286 288 288 288 288 288 289 291 291 292 292 292
261 264 266 267 266 267 270 271 272 272 272 272 273 273 274 275 276 276 279 282 284 284 286 286 285 284 285 285 286 286 287 288 287 287 287 287 286 286 288 290 291 292 293 293
261 263 265 266 267 267 268 269 270 271 272 272 272 271 272 274 276 276 277 281 283 283 284 285 285 284 285 285 285 286 286 287 287 286 285 285 285 285 287 289 290 291 291 291
261 262 263 265 266 268 268 269 269 270 271 273 272 272 274 276 278 279 279 280 281 281 282 283 284 285 284 285 285 286 287 286 287 288 285 283 284 284 285 287 289 289 291 290
259 261 264 266 267 268 269 267 267 269 270 270 271 272 274 276 277 279 280 280 280 280 281 282 284 284 283 283 284 285 286 286 286 287 285 283 284 284 285 285 286 287 288 289
259 262 264 265 267 268 268 267 268 268 268 268 270 271 273 274 276 277 279 279 279 280 281 282 283 282 282 282 282 284 284 284 283 284 285 285 284 285 285 284 285 285 286 286
260 261 263 264 265 267 267 268 268 268 269 268 269 271 274 276 276 276 277 278 280 281 281 282 281 281 281 281 281 281 281 282 283 284 285 285 284 284 283 284 284 284 284 284
260 262 264 264 265 266 265 267 268 269 269 269 271 273 273 275 276 277 276 277 279 280 280 280 281 280 279 278 279 279 278 279 282 284 284 285 285 282 282 283 283 282 283 284
259 260 264 265 267 266 265 266 267 268 270 272 272 273 274 274 275 277 278 277 278 279 280 281 281 280 278 277 277 276 276 277 279 283 285 284 283 283 283 283 281 281 283 283
259 260 261 263 266 265 265 265 266 267 269 271 273 273 274 274 276 278 280 280 280 280 280 281 281 280 278 276 275 275 275 277 278 280 282 281 282 282 281 281 280 281 281 282
259 257 259 262 265 266 265 266 266 265 267 268 271 274 276 277 276 278 281 283 284 285 285 285 282 280 278 276 275 275 275 276 277 278 280 280 279 279 279 279 279 280 281 281
258 256 257 260 263 262 263 265 266 267 266 266 269 275 277 279 281 281 283 285 287 288 288 287 282 280 280 279 276 275 276 279 280 280 281 281 280 279 279 278 278 279 282 282
259 259 259 259 260 259 261 264 266 267 266 268 270 273 276 277 281 285 288 289 288 287 288 287 285 283 282 281 280 279 281 283 284 281 282 284 283 282 282 280 279 280 280 282
261 261 260 260 259 259 261 263 265 267 268 269 270 273 275 277 280 284 288 290 289 288 288 288 287 284 283 284 284 284 285 286 285 283 281 282 284 283 283 282 282 283 283 285
262 262 262 262 260 260 263 264 265 267 269 271 273 274 275 277 281 284 287 288 289 288 288 289 290 290 290 290 290 289 287 285 284 282 282 283 286 287 286 284 283 286 287 286
264 263 263 263 262 261 262 262 263 265 268 270 271 273 276 279 281 284 285 285 287 288 288 289 290 291 292 290 290 291 291 288 286 285 284 286 288 288 287 284 284 288 286 286
265 264 263 263 261 260 262 263 263 265 267 268 269 272 276 278 279 281 281 281 284 286 288 289 291 292 291 290 290 290 290 290 288 285 285 286 288 288 288 286 285 286 285 285
265 263 260 260 260 261 261 261 262 264 265 267 268 270 272 274 278 278 277 279 282 284 286 289 290 291 291 290 290 289 288 288 287 287 287 287 287 287 288 287 285 284 285 286
264 262 260 260 261 262 260 258 258 260 263 267 269 270 269 271 272 273 273 277 279 281 283 286 287 288 290 291 290 288 288 288 289 289 288 287 287 288 287 286 286 284 286 288
262 260 258 259 261 261 261 260 259 260 265 268 270 271 271 272 270 269 272 275 277 279 281 283 285 285 286 288 289 287 286 285 286 287 288 288 287 287 287 286 287 288 289 291
261 261 260 259 262 263 265 266 265 267 271 273 273 272 272 272 271 272 273 275 278 279 281 282 283 284 287 288 287 286 285 284 284 284 286 287 288 287 287 285 284 285 288 291
Height
5848 5850 5851 5851 5852 5852 5852 5852 5852 5852 5852 5852 5851 5850 5850 5849 5848 5847 5846 5845 5843 5842 5840 5839 5837 5835 5834 5832 5831 5830 5829 5828 5826 5825 5823 5822 5820 5819 5817 5816 5814 5812 5810 5809
5841 5842 5843 5844 5845 5846 5846 5846 5846 5845 5846 5846 5845 5844 5844 5843 5842 5841 5840 5839 5837 5836 5834 5832 5831 5829 5828 5827 5825 5824 5823 5822 5821 5819 5818 5816 5815 5813 5811 5810 5808 5806 5804 5803
5834 5835 5835 5836 5839 5839 5840 5839 5839 5839 5840 5839 5838 5838 5838 5837 5836 5835 5834 5833 5832 5830 5828 5827 5825 5824 5822 5820 5819 5818 5817 5816 5814 5813 5812 5810 5808 5807 5805 5803 5801 5800 5798 5797
5826 5828 5827 5832 5832 5832 5832 5832 5832 5832 5832 5832 5831 5831 5831 5830 5830 5829 5828 5827 5825 5823 5822 5821 5819 5817 5816 5814 5813 5812 5810 5809 5808 5806 5805 5804 5802 5800 5799 5797 5795 5793 5791 5790
5818 5818 5819 5823 5824 5824 5824 5824 5825 5825 5824 5824 5824 5824 5824 5823 5823 5822 5821 5820 5818 5817 5815 5814 5812 5811 5809 5808 5807 5805 5804 5803 5801 5800 5798 5796 5795 5793 5791 5789 5788 5786 5784 5783
5810 5810 5811 5815 5816 5816 5816 5816 5818 5817 5817 5817 5817 5817 5817 5816 5815 5815 5814 5812 5811 5810 5808 5806 5805 5803 5802 5801 5800 5798 5797 5795 5794 5792 5791 5789 5788 5786 5784 5782 5780 5779 5777 5776
5801 5801 5803 5807 5807 5808 5809 5810 5809 5809 5809 5809 5809 5809 5809 5809 5808 5807 5806 5805 5803 5802 5800 5799 5797 5796 5795 5794 5792 5790 5789 5787 5786 5785 5783 5781 5780 5778 5777 5775 5773 5772 5770 5769
5793 5794 5798 5798 5798 5799 5800 5800 5800 5800 5800 5800 5800 5800 5800 5800 5799 5799 5798 5797 5795 5794 5793 5791 5790 5788 5787 5785 5784 5782 5781 5779 5778 5777 5775 5773 5772 5770 5769 5767 5766 5764 5763 5761
5785 5788 5788 5788 5788 5789 5790 5791 5791 5791 5791 5792 5792 5792 5791 5791 5791 5790 5789 5788 5787 5786 5784 5783 5781 5780 5779 5777 5775 5774 5773 5771 5770 5768 5766 5765 5763 5762 5760 5759 5758 5757 5755 5753
5776 5777 5778 5779 5779 5780 5781 5781 5781 5782 5782 5782 5782 5783 5783 5782 5782 5781 5780 5779 5778 5777 5775 5774 5773 5771 5770 5769 5766 5765 5764 5763 5761 5759 5757 5756 5754 5753 5752 5751 5749 5748 5747 5746
5766 5768 5769 5770 5770 5771 5771 5771 5772 5772 5772 5773 5773 5773 5773 5773 5772 5772 5771 5770 5768 5767 5766 5765 5764 5763 5761 5760 5758 5757 5756 5754 5752 5751 5748 5747 5746 5744 5743 5742 5741 5740 5739 5738
5758 5759 5760 5761 5761 5761 5761 5762 5762 5762 5762 5763 5763 5763 5764 5764 5763 5762 5761 5760 5759 5758 5757 5756 5754 5753 5752 5750 5749 5748 5747 5745 5744 5742 5740 5739 5738 5736 5735 5734 5732 5732 5731 5730
5748 5749 5750 5751 5751 5752 5752 5752 5752 5752 5752 5753 5753 5754 5754 5754 5753 5753 5752 5751 5750 5748 5747 5746 5745 5744 5743 5741 5740 5739 5738 5737 5735 5734 5732 5730 5729 5727 5726 5725 5724 5723 5722 5721
5738 5739 5741 5742 5742 5743 5743 5743 5743 5743 5743 5744 5744 5745 5745 5745 5744 5742 5742 5741 5740 5739 5738 5737 5735 5734 5733 5732 5731 5730 5729 5728 5726 5725 5723 5722 5720 5719 5718 5717 5716 5715 5714 5713
5729 5730 5731 5732 5733 5734 5734 5735 5735 5735 5736 5736 5736 5736 5736 5735 5734 5733 5732 5731 5730 5729 5728 5727 5726 5725 5724 5722 5721 5720 5719 5719 5717 5716 5714 5713 5712 5711 5710 5708 5708 5707 5706 5704
5721 5722 5723 5724 5724 5724 5725 5726 5726 5727 5727 5727 5727 5727 5727 5726 5725 5725 5723 5722 5721 5720 5719 5717 5716 5715 5714 5713 5712 5711 5710 5710 5709 5708 5706 5705 5704 5703 5702 5700 5700 5699 5698 5697
5712 5714 5714 5715 5716 5716 5717 5717 5718 5718 5719 5719 5719 5719 5718 5718 5717 5716 5715 5714 5712 5711 5710 5708 5707 5706 5705 5704 5703 5702 5702 5701 5700 5699 5698 5697 5696 5695 5694 5693 5692 5691 5690 5689
5704 5706 5706 5707 5708 5708 5708 5709 5710 5710 5711 5711 5711 5711 5711 5710 5709 5708 5707 5706 5704 5703 5701 5700 5699 5698 5697 5696 5694 5694 5694 5693 5692 5691 5690 5689 5688 5687 5686 5685 5684 5683 5683 5681
5696 5698 5698 5699 5699 5700 5701 5701 5702 5703 5703 5704 5704 5704 5703 5703 5702 5701 5700 5699 5697 5696 5694 5693 5691 5690 5689 5689 5688 5687 5687 5686 5684 5684 5683 5682 5681 5680 5679 5678 5677 5676 5675 5674
5689 5690 5690 5691 5692 5693 5694 5694 5695 5696 5696 5696 5696 5696 5696 5696 5695 5694 5693 5692 5690 5689 5688 5686 5685 5684 5683 5682 5681 5680 5679 5678 5678 5677 5676 5676 5675 5674 5673 5672 5671 5670 5669 5668
5682 5683 5683 5684 5685 5685 5686 5687 5688 5689 5689 5690 5689 5689 5689 5689 5688 5688 5687 5686 5684 5682 5681 5680 5679 5678 5677 5676 5675 5674 5673 5672 5671 5671 5670 5670 5669 5668 5667 5666 5665 5664 5663 5663
5676 5676 5676 5677 5678 5679 5679 5680 5681 5681 5682 5682 5682 5682 5682 5682 5682 5681 5680 5679 5678 5677 5675 5674 5673 5672 5671 5670 5669 5668 5667 5666 5666 5665 5664 5664 5663 5662 5661 5660 5660 5659 5658 5657
5669 5669 5670 5670 5671 5672 5672 5673 5674 5675 5675 5676 5676 5676 5676 5676 5676 5675 5674 5673 5672 5671 5670 5669 5668 5667 5666 5665 5664 5663 5662 5661 5661 5660 5659 5658 5657 5657 5656 5655 5655 5654 5653 5652
5663 5663 5664 5664 5665 5666 5666 5667 5668 5669 5669 5669 5670 5670 5670 5670 5670 5669 5668 5668 5667 5666 5665 5664 5663 5662 5661 5660 5659 5658 5657 5657 5656 5655 5654 5654 5653 5652 5651 5650 5650 5649 5648 5647
5658 5658 5659 5659 5660 5660 5661 5661 5662 5663 5663 5664 5664 5664 5664 5664 5664 5663 5663 5662 5661 5661 5660 5659 5658 5657 5656 5655 5654 5653 5653 5652 5651 5650 5650 5649 5648 5647 5646 5645 5645 5643 5642 5641
5654 5654 5654 5655 5655 5656 5656 5657 5657 5658 5658 5659 5659 5658 5659 5659 5658 5658 5657 5657 5656 5656 5655 5654 5653 5652 5651 5650 5649 5648 5647 5647 5646 5645 5644 5643 5642 5641 5640 5640 5639 5638 5637 5636
5650 5650 5651 5651 5651 5652 5652 5653 5653 5654 5654 5654 5654 5654 5654 5653 5653 5653 5652 5652 5651 5650 5650 5649 5648 5647 5646 5645 5644 5643 5642 5641 5640 5639 5638 5637 5636 5635 5635 5634 5633 5632 5631 5630